Content
SEND FEEDBACK

Daily
Averages
Monthly
Summary
United States of America

MAURICEVILLE, TEXAS


Home > North America > United States > Texas
Elevation: 6 meters     Latitude: 30 14N     Longitude: 093 44W

WEATHER
 
SELECT A DAY
Number of Records: 119,414;   Date Range: 8/25/05 - 12/24/14
 
SHARE

PRINT THIS DATA

[ ← Previous Day ]
WEATHER ALMANAC - 1 MAY, 2013
[ Next Day → ]
[ °F ]   °C
Weather ElementAverageHighLow
Temperature21.2 °C27.2 °C (2:35 pm) (11:15 am)
Dewpoint18.3 °C21.4 °C (6:55 pm) (7:00 pm)
Humidity84.5 %97 % (11:55 pm)57 % (3:15 pm)
Barometer996.3 hPa1012.9 hPa (10:35 am) (7:00 pm)
Wind Speed0.5 km/h16.7 km/h (4:15 pm)
Wind Gust25.9 km/h (4:15 pm)
Weather ElementAverage
Visibility14 km
Wind DirectionNNE (8.5 °)

Weather ElementTotal
Precipitation21.59 mm
Heating Degree Days13.6 (Base 18.3)
Averaged from 67 records on 1 May, 2013
WEATHER CONDITIONS BREAKOUT
WIND DIRECTION BREAKOUT
WEATHER BY HOUR - 1 MAY, 2013
[ °F ]   °C
Local TimeTemperatureDewpointHumidityBarometerVisibilityWind DirectionWind SpeedGust SpeedPrecipitationEventsConditions
12:35 AM21.1 °C19.7 °C92 %1010.8 hPa16.1 kmCalmOvercast
12:55 AM20.1 °C19.1 °C94 %1010.5 hPa16.1 kmCalmScattered Clouds
1:15 AM20 °C19.1 °C95 %1010.5 hPa16.1 kmCalmRainRain
1:35 AM20 °C19.2 °C95 %1010.2 hPa8 kmCalm0.51 mmRainLight Rain
1:55 AM20.9 °C20 °C95 %1010.2 hPa16.1 kmCalm0.51 mmOvercast
2:15 AM21 °C19.5 °C91 %1010.2 hPa16.1 kmCalmMostly Cloudy
2:35 AM20.8 °C19.5 °C92 %1010.2 hPa16.1 kmCalmMostly Cloudy
2:55 AM20.1 °C19.5 °C96 %1010.2 hPa11.3 kmCalmOvercast
3:15 AM20.5 °C19.7 °C95 %1010.2 hPa11.3 kmCalmOvercast
3:35 AM20.5 °C19.8 °C96 %1009.8 hPa11.3 kmCalmOvercast
3:55 AM20.5 °C19.7 °C95 %1010.2 hPa11.3 kmCalmOvercast
4:15 AM20.5 °C19.9 °C96 %1010.2 hPa11.3 kmCalmOvercast
4:35 AM20.5 °C19.7 °C95 %1010.2 hPa11.3 kmCalmRainRain
4:55 AM20.5 °C19.7 °C95 %1010.5 hPa16.1 kmCalmOvercast
5:15 AM20.3 °C19.6 °C96 %1010.5 hPa11.3 kmCalmOvercast
5:35 AM20.3 °C19.6 °C96 %1010.5 hPa11.3 kmCalm0.25 mmOvercast
5:55 AM20.3 °C19.6 °C96 %1010.8 hPa11.3 kmCalm0.25 mmOvercast
6:15 AM20.3 °C19.6 °C96 %1010.8 hPa11.3 kmCalmThunderstormOvercast
6:35 AM20.2 °C19.5 °C96 %1011.2 hPa11.3 kmCalmThunderstormThunderstorm
6:55 AM20 °C19.2 °C95 %1011.5 hPa11.3 kmCalmThunderstormOvercast
7:15 AM20 °C19.1 °C95 %1011.5 hPa11.3 kmCalmRain-ThunderstormLight Thunderstorms and Rain
7:35 AM19.9 °C19.1 °C95 %1011.9 hPa1.9 kmCalm6.35 mmRain-ThunderstormHeavy Thunderstorms and Rain
7:55 AM19.5 °C18.7 °C95 %1012.2 hPa6.4 kmCalm7.87 mmRainRain
8:15 AM19.5 °C18.6 °C95 %1012.2 hPa16.1 kmCalm0.25 mmThunderstorm
8:35 AM19.5 °C18.6 °C95 %1012.5 hPa16.1 kmCalm0.25 mmOvercast
8:55 AM19.5 °C18.2 °C92 %1012.5 hPa16.1 kmCalm0.25 mmThunderstormOvercast
9:15 AM20.1 °C19 °C93 %1012.5 hPa16.1 kmCalmOvercast
9:35 AM20.7 °C19.5 °C93 %1012.5 hPa16.1 kmCalmMostly Cloudy
9:55 AM21.5 °C20 °C91 %1012.5 hPa16.1 kmCalmMostly Cloudy
10:15 AM22.3 °C19.8 °C86 %1012.5 hPa16.1 kmCalmOvercast
10:35 AM22.9 °C19.6 °C82 %1012.9 hPa16.1 kmCalmScattered Clouds
10:55 AM23.2 °C19.5 °C80 %1012.9 hPa16.1 kmNorthMostly Cloudy
11:15 AM-17.8 °C-17.8 °C1012.9 hPa16.1 kmNorthMostly Cloudy
11:35 AM23.9 °C18.9 °C73 %1012.9 hPa16.1 kmCalmOvercast
11:55 AM24.6 °C19.3 °C72 %1012.9 hPa16.1 kmNorthMostly Cloudy
12:15 PM24.7 °C19.3 °C72 %1012.2 hPa16.1 kmCalmScattered Clouds
12:35 PM24.7 °C19 °C70 %1012.2 hPa16.1 kmCalmClear
12:55 PM25.9 °C19.6 °C68 %1012.2 hPa16.1 kmSSW (210°)9.3 km/hScattered Clouds
1:15 PM25.7 °C19.2 °C67 %1011.9 hPa16.1 kmCalmOvercast
1:35 PM26.4 °C19.1 °C64 %1011.5 hPa16.1 kmCalmScattered Clouds
1:55 PM26.5 °C18.3 °C61 %1011.5 hPa16.1 kmCalmScattered Clouds
2:15 PM26.6 °C18 °C59 %1011.5 hPa16.1 kmCalmScattered Clouds
2:35 PM27.2 °C18.2 °C58 %1011.2 hPa16.1 kmCalmScattered Clouds
2:55 PM27 °C18 °C58 %1011.2 hPa16.1 kmCalmScattered Clouds
3:15 PM27 °C17.7 °C57 %1010.8 hPa16.1 kmCalmMostly Cloudy
3:35 PM27.1 °C18.5 °C59 %1010.8 hPa16.1 kmCalmMostly Cloudy
4:15 PM24.3 °C19.9 °C76 %1011.2 hPa16.1 kmNorth (360°)16.7 km/h25.9 km/hRainLight Rain
4:35 PM22.5 °C20.6 °C89 %1010.8 hPa8 kmCalm0.25 mmRainLight Rain
4:55 PM22.9 °C20.7 °C87 %1010.8 hPa16.1 kmCalm0.25 mmThunderstormOvercast
5:15 PM25.4 °C21 °C76 %1010.8 hPa16.1 kmCalmScattered Clouds
5:35 PM25.4 °C20 °C72 %1010.5 hPa16.1 kmCalmClear
6:15 PM25.8 °C19.7 °C69 %1010.8 hPa16.1 kmCalmScattered Clouds
6:35 PM25.7 °C19.7 °C69 %1010.8 hPa16.1 kmCalmClear
6:55 PM24.9 °C21.4 °C81 %1010.8 hPa16.1 kmCalmScattered Clouds
7:15 PM25.3 °C20.2 °C73 %1011.2 hPa16.1 kmCalmScattered Clouds
7:35 PM25 °C19.9 °C73 %1010.8 hPa16.1 kmCalmClear
7:55 PM23.9 °C20 °C79 %1011.2 hPa16.1 kmCalmClear
8:35 PM23.1 °C20.2 °C84 %1011.2 hPa16.1 kmCalmScattered Clouds
8:55 PM23.2 °C20.1 °C83 %1011.5 hPa16.1 kmCalmThunderstormThunderstorm
9:35 PM22 °C20.1 °C89 %1012.2 hPa11.3 kmCalm2.29 mmRainLight Rain
9:55 PM21.8 °C20.1 °C90 %1012.5 hPa16.1 kmCalm2.29 mmOvercast
10:15 PM21.2 °C20.2 °C94 %1012.5 hPa16.1 kmNorthOvercast
10:35 PM-17.8 °C-17.8 °C16.1 kmNorthScattered Clouds
10:55 PM20.6 °C19.5 °C93 %1012.5 hPa16.1 kmCalmScattered Clouds
11:15 PM20.2 °C19.5 °C96 %1012.5 hPa8 kmCalmScattered Clouds
11:35 PM19.6 °C19 °C96 %1012.5 hPa4.8 kmCalmClear
11:55 PM19.6 °C19.1 °C97 %1012.5 hPa6.4 kmCalmScattered Clouds
Hourly data recorded from KORG, located 0 kilometers away from Mauriceville, Texas







STORIES FROM OUR PARTNERS